TimeEDT,TemperatureF,Dew PointF,Humidity,Sea Level PressureIn,VisibilityMPH,Wind Direction,Wind SpeedMPH,Gust SpeedMPH,PrecipitationIn,Events,Conditions,WindDirDegrees,DateUTC
12:54 AM,72.0,62.1,71,30.03,10.0,East,6.9,-,N/A,,Overcast,100,2013-08-06 04:54:00
1:54 AM,71.1,62.1,73,30.01,10.0,ESE,6.9,-,N/A,,Overcast,110,2013-08-06 05:54:00
2:54 AM,70.0,62.1,76,30.01,10.0,SE,3.5,-,N/A,,Overcast,140,2013-08-06 06:54:00
3:54 AM,69.1,63.0,81,29.99,10.0,SSE,3.5,-,N/A,,Overcast,160,2013-08-06 07:54:00
4:54 AM,69.1,63.0,81,30.00,10.0,SSW,3.5,-,N/A,,Overcast,200,2013-08-06 08:54:00
5:54 AM,68.0,62.1,81,30.00,10.0,Calm,Calm,-,N/A,,Mostly Cloudy,0,2013-08-06 09:54:00
6:54 AM,68.0,62.1,81,30.01,10.0,Calm,Calm,-,N/A,,Clear,0,2013-08-06 10:54:00
7:54 AM,69.1,63.0,81,30.03,10.0,SE,3.5,-,N/A,,Overcast,130,2013-08-06 11:54:00
8:26 AM,69.8,64.4,83,30.07,10.0,SE,3.5,-,N/A,,Overcast,130,2013-08-06 12:26:00
8:54 AM,72.0,64.0,76,30.03,10.0,Calm,Calm,-,N/A,,Overcast,0,2013-08-06 12:54:00
9:54 AM,75.0,64.9,71,30.03,10.0,Calm,Calm,-,N/A,,Overcast,0,2013-08-06 13:54:00
10:30 AM,75.2,64.4,69,30.06,10.0,Variable,3.5,-,N/A,,Mostly Cloudy,0,2013-08-06 14:30:00
10:43 AM,77.0,64.4,65,30.06,10.0,Variable,3.5,-,N/A,,Scattered Clouds,0,2013-08-06 14:43:00
10:54 AM,77.0,66.0,69,30.04,10.0,SE,3.5,-,N/A,,Mostly Cloudy,140,2013-08-06 14:54:00
11:54 AM,78.1,66.0,66,30.02,10.0,ESE,6.9,-,N/A,,Overcast,110,2013-08-06 15:54:00
12:54 PM,80.1,66.0,62,30.01,10.0,SSE,9.2,-,N/A,,Mostly Cloudy,160,2013-08-06 16:54:00
1:54 PM,81.0,64.9,58,30.01,10.0,South,5.8,-,N/A,,Overcast,180,2013-08-06 17:54:00
2:54 PM,82.0,66.0,58,30.00,10.0,SSE,8.1,-,N/A,,Overcast,150,2013-08-06 18:54:00
3:54 PM,81.0,66.9,62,30.00,10.0,SE,9.2,-,N/A,,Mostly Cloudy,140,2013-08-06 19:54:00
4:54 PM,81.0,68.0,65,29.99,10.0,SSE,9.2,-,N/A,,Mostly Cloudy,150,2013-08-06 20:54:00
5:54 PM,80.1,68.0,67,29.99,10.0,South,16.1,-,N/A,,Mostly Cloudy,170,2013-08-06 21:54:00
6:54 PM,75.9,64.9,69,30.01,10.0,South,9.2,19.6,N/A,,Mostly Cloudy,180,2013-08-06 22:54:00
7:54 PM,75.9,69.1,79,30.01,10.0,SSE,11.5,-,N/A,,Mostly Cloudy,150,2013-08-06 23:54:00
8:54 PM,73.0,69.1,87,30.02,10.0,ESE,5.8,-,N/A,,Mostly Cloudy,120,2013-08-07 00:54:00
9:54 PM,73.0,69.1,87,30.04,10.0,ESE,3.5,-,N/A,,Overcast,110,2013-08-07 01:54:00
10:54 PM,73.0,70.0,90,30.05,10.0,ESE,4.6,-,N/A,,Mostly Cloudy,110,2013-08-07 02:54:00
11:54 PM,71.1,69.1,93,30.05,10.0,SE,4.6,-,N/A,,Mostly Cloudy,140,2013-08-07 03:54:00